Dewpoint
54 42 36 34 34 34 24 22 34 37 42 40 45 47 46 46 46 47 63 63 63 65 67 71 76 77 77 77 77 77 76 76 76 75 75 76 76 76 76 75 75 74 73 73 72 72 72 72 72
40 37 33 32 31 30 24 23 32 38 38 35 45 48 44 46 55 62 63 64 65 65 66 67 76 76 77 76 76 76 76 76 75 75 76 76 76 75 75 75 74 73 73 73 73 73 73 74 74
42 35 32 31 31 28 25 26 32 36 35 35 41 46 43 53 58 59 64 66 66 66 64 71 76 76 76 76 76 76 76 75 75 76 76 76 76 76 76 75 74 72 73 73 73 73 73 72 72
30 31 31 30 29 30 31 30 33 33 34 34 35 38 51 58 58 61 65 65 65 63 65 74 76 76 76 76 76 75 75 75 76 76 76 76 75 76 76 75 74 73 72 73 73 72 72 72 73
30 26 28 29 29 31 34 33 31 32 33 33 42 42 50 60 64 64 64 64 63 63 66 70 76 76 75 75 75 75 75 75 76 76 75 75 75 75 75 74 73 72 72 71 72 71 72 72 71
20 21 18 22 24 29 33 34 32 31 33 33 38 46 57 63 64 63 62 63 62 64 67 70 75 75 75 75 75 75 75 75 75 75 75 75 75 75 74 73 73 72 72 71 71 72 71 70 70
17 16 15 13 19 25 31 35 32 31 32 33 39 46 61 62 66 62 62 63 63 64 66 68 69 73 75 75 74 74 74 74 75 75 75 75 75 74 73 73 73 73 72 72 72 71 71 70 70
21 14 12 9 9 17 30 32 34 32 33 38 47 45 57 65 67 65 63 63 64 64 65 66 67 66 68 70 75 74 74 74 74 75 75 75 75 73 72 73 73 72 72 72 72 71 70 70 70
26 17 14 7 9 17 23 28 32 34 33 45 55 56 63 66 67 65 65 64 64 64 65 64 64 65 65 65 70 74 74 75 74 74 75 73 66 70 71 69 71 71 71 71 72 71 71 71 71
24 19 10 6 10 15 20 24 29 33 34 41 55 63 66 67 66 64 63 63 64 64 65 65 65 66 65 64 69 67 67 67 67 67 70 66 66 68 65 69 71 71 71 70 71 71 70 69 55
20 13 11 9 18 20 19 24 28 31 32 35 46 60 66 66 66 65 62 64 64 65 65 65 69 69 67 65 66 65 66 66 67 69 70 67 65 67 65 63 64 65 70 63 66 64 61 57 58
20 17 14 17 22 21 19 20 24 27 31 36 49 60 64 65 65 64 64 64 64 65 66 67 70 71 70 66 67 66 66 67 67 68 72 69 67 67 65 62 62 66 62 63 65 60 63 65 65
22 18 18 19 20 20 20 21 19 19 29 40 55 61 63 66 66 66 65 66 66 66 67 68 70 72 72 72 68 67 68 67 67 68 70 68 67 67 65 65 64 62 60 62 60 62 66 67 66
23 18 21 20 17 19 17 19 21 26 37 44 54 57 59 63 66 67 67 67 67 68 69 69 70 73 72 72 72 70 70 68 68 68 68 70 68 69 66 65 63 62 61 59 59 62 67 67 67
19 19 20 20 18 18 21 19 19 20 38 43 52 54 56 60 64 67 68 69 69 69 71 70 71 72 73 73 72 71 69 68 69 68 71 71 71 71 70 64 63 61 62 64 64 67 68 67 67
16 18 15 17 19 19 21 14 21 22 34 39 49 51 53 57 61 64 67 69 70 71 72 72 69 70 73 72 71 69 68 69 69 70 71 72 71 71 71 65 63 61 63 62 65 66 66 66 65
14 12 11 11 17 18 20 13 14 24 33 37 43 44 46 52 56 60 62 66 70 71 72 72 72 70 71 72 71 71 72 71 71 71 70 71 71 70 70 65 63 67 62 61 63 67 68 68 69
11 8 8 8 14 17 18 14 16 21 25 34 38 40 41 44 51 56 58 58 63 68 72 72 72 72 72 70 71 69 68 69 69 68 68 70 69 69 69 65 66 67 62 61 62 67 67 69 69
13 11 7 9 15 17 18 16 20 21 21 28 35 36 40 41 44 49 54 57 58 63 69 71 72 73 71 69 67 66 66 68 69 68 68 69 69 68 69 65 66 68 65 67 68 67 69 68 71
12 13 10 11 15 15 15 17 18 24 24 23 29 35 38 37 38 46 49 54 58 61 64 67 71 72 72 69 69 67 66 66 66 66 69 69 69 69 69 70 69 71 68 72 72 72 68 67 69
13 14 12 11 13 13 15 14 17 23 28 28 29 35 34 36 37 42 46 52 57 61 64 66 69 71 72 72 70 70 69 69 69 69 69 71 71 72 72 71 72 72 72 75 75 74 72 63 68
14 12 10 10 11 8 17 5 18 18 22 25 29 30 29 33 37 39 42 47 53 55 61 65 67 69 70 72 71 71 67 65 65 67 69 75 73 73 73 73 73 74 74 76 75 75 70 69 69
15 13 13 14 13 15 16 9 15 19 17 18 23 26 28 32 37 37 39 42 43 48 53 61 66 69 70 71 72 69 70 65 67 69 70 72 73 71 69 72 73 73 72 73 74 74 74 72 70
14 16 13 15 12 17 19 9 16 19 20 22 23 25 28 28 29 33 35 38 38 37 44 57 65 67 69 70 71 71 70 69 67 68 67 68 70 70 70 69 72 73 73 73 73 73 73 72 69
17 21 15 12 12 9 18 12 16 22 21 21 23 24 25 27 30 31 34 34 37 40 44 55 63 65 67 67 68 69 70 70 69 68 66 66 64 64 66 68 68 67 69 69 71 71 71 70 68
15 18 11 12 10 13 21 13 14 22 21 25 29 33 33 30 30 32 34 37 38 40 45 55 62 64 66 66 68 68 69 66 65 64 62 61 59 59 62 62 62 62 62 64 67 66 66 68 67
13 14 15 14 12 15 16 16 24 27 31 35 36 39 41 42 38 39 36 39 40 43 55 58 63 64 64 64 64 64 65 64 62 63 62 58 60 56 57 57 58 58 58 58 60 57 61 63 65
14 15 14 15 16 12 13 15 15 28 29 35 37 40 41 43 47 51 53 56 55 59 62 62 62 62 61 61 60 58 58 58 58 58 57 57 56 55 55 53 55 55 55 56 58 56 56 58 56
13 10 15 16 18 15 14 13 26 31 37 41 48 49 52 53 55 56 57 57 58 57 57 58 58 57 55 54 54 54 53 53 53 53 53 53 53 51 49 49 49 49 50 53 54 54 51 53 55
16 14 19 16 21 21 18 25 38 40 42 48 50 52 53 55 56 56 56 56 56 55 54 53 52 49 49 50 50 51 51 51 52 51 51 51 50 48 46 47 46 45 45 48 48 48 48 49 49
Lifted_Index
8 8 8 7 4 3 2 1 1 1 1 1 0 -1 -1 -1 -1 -2 -2 -2 -1 -1 -0 -1 -3 -4 -4 -3 -3 -3 -3 -2 -2 -2 -2 -3 -3 -3 -3 -2 -2 -1 -1 -1 -1 -1 -1 -1 -1
8 8 7 6 4 3 2 1 1 1 1 1 0 -0 -1 -1 -2 -2 -2 -2 -2 -1 -1 -1 -3 -4 -4 -3 -3 -3 -2 -2 -2 -2 -3 -3 -3 -3 -3 -2 -2 -1 -1 -1 -1 -1 -1 -2 -2
8 8 6 5 4 3 2 2 1 1 1 1 1 0 -0 -1 -2 -3 -2 -2 -2 -2 -1 -2 -4 -4 -4 -3 -3 -3 -2 -2 -2 -2 -3 -3 -3 -3 -3 -2 -2 -1 -1 -1 -2 -1 -2 -2 -2
9 8 6 5 4 3 3 3 2 2 2 2 1 1 -1 -2 -3 -3 -3 -2 -2 -2 -2 -3 -4 -4 -4 -3 -3 -3 -2 -2 -3 -3 -3 -3 -3 -3 -3 -2 -2 -1 -1 -1 -1 -1 -1 -2 -2
9 8 6 5 4 3 3 3 3 3 2 2 1 -0 -1 -3 -3 -3 -3 -2 -2 -2 -2 -3 -4 -4 -4 -3 -3 -3 -3 -3 -3 -3 -3 -3 -3 -3 -3 -2 -2 -1 -1 -1 -1 -1 -1 -1 -1
9 8 6 5 4 4 3 4 4 3 3 2 1 -1 -3 -4 -4 -3 -3 -2 -2 -1 -2 -2 -3 -4 -4 -3 -3 -3 -2 -3 -3 -3 -3 -3 -3 -3 -3 -2 -2 -1 -1 -1 -1 -1 -1 -1 -1
9 8 6 5 5 4 4 3 3 3 3 3 1 -2 -4 -5 -4 -3 -3 -2 -2 -2 -2 -2 -2 -3 -3 -3 -3 -3 -3 -3 -3 -3 -3 -3 -3 -3 -2 -2 -2 -2 -2 -1 -1 -1 -1 -0 -0
9 8 7 6 5 5 4 4 3 3 3 2 0 -2 -5 -6 -5 -4 -3 -3 -3 -2 -2 -1 -2 -2 -2 -2 -3 -3 -3 -3 -3 -3 -3 -3 -2 -2 -2 -1 -1 -1 -1 -2 -1 -1 -1 -0 -0
9 8 6 6 6 6 5 4 4 3 3 1 -1 -3 -5 -6 -6 -5 -4 -4 -3 -3 -3 -2 -2 -2 -2 -2 -2 -2 -2 -2 -2 -2 -2 -2 -1 -1 -1 -1 -1 -1 -1 -1 -1 -1 -1 -0 0
9 8 7 6 7 6 6 5 4 4 3 1 -2 -4 -5 -6 -6 -5 -5 -4 -4 -3 -3 -3 -3 -3 -3 -2 -2 -2 -2 -1 -1 -1 -1 -1 -1 -1 -1 -0 -0 -0 -1 -0 -0 -0 -0 1 2
9 9 8 7 7 7 7 6 5 4 3 2 -1 -4 -5 -6 -6 -6 -5 -5 -4 -4 -4 -4 -4 -4 -4 -3 -3 -3 -2 -2 -2 -2 -2 -1 -1 -1 -0 0 0 0 -0 0 0 0 1 1 2
10 9 9 8 8 8 7 7 6 5 4 2 -1 -4 -5 -6 -6 -6 -6 -5 -5 -4 -4 -4 -5 -5 -5 -4 -4 -4 -4 -4 -3 -3 -3 -3 -2 -1 -1 -0 0 0 0 0 0 0 -0 -0 -1
9 9 9 9 8 8 7 7 7 6 4 2 -2 -4 -5 -6 -6 -6 -6 -6 -5 -5 -5 -5 -5 -5 -5 -5 -5 -5 -5 -5 -4 -4 -4 -4 -3 -2 -2 -1 -1 -0 0 0 -0 -1 -2 -3 -3
9 9 9 9 8 8 8 7 7 6 4 2 -2 -4 -5 -6 -6 -6 -6 -6 -6 -5 -5 -5 -6 -6 -6 -6 -6 -6 -5 -5 -5 -5 -5 -4 -4 -3 -2 -2 -1 -0 0 -0 -1 -2 -3 -4 -4
10 9 9 9 9 8 7 7 7 6 4 2 -1 -3 -4 -5 -6 -6 -6 -6 -6 -6 -6 -6 -6 -6 -6 -6 -6 -6 -5 -5 -5 -5 -5 -5 -4 -4 -3 -2 -1 -0 0 -0 -2 -3 -4 -5 -5
9 9 8 9 9 9 8 7 7 7 5 3 1 -1 -2 -4 -5 -6 -6 -6 -6 -6 -6 -6 -6 -6 -6 -6 -6 -6 -5 -5 -5 -5 -5 -5 -5 -4 -4 -3 -2 -1 -0 -1 -2 -3 -4 -5 -5
8 7 8 9 9 9 8 7 7 7 6 4 2 1 -0 -2 -3 -4 -5 -5 -6 -6 -6 -6 -6 -6 -6 -6 -6 -5 -5 -5 -5 -5 -5 -5 -4 -4 -4 -3 -2 -1 -0 -0 -2 -3 -4 -5 -5
7 7 8 8 9 9 8 8 8 8 7 5 4 3 2 1 -1 -2 -3 -3 -4 -5 -6 -7 -6 -6 -6 -6 -6 -5 -5 -5 -4 -4 -4 -4 -4 -4 -3 -2 -1 -1 -1 -0 -1 -3 -4 -5 -5
7 7 8 8 9 8 8 7 8 8 7 6 5 4 3 2 1 0 -1 -1 -2 -4 -5 -6 -7 -7 -7 -6 -6 -5 -5 -4 -4 -4 -4 -4 -3 -3 -3 -2 -2 -2 -2 -2 -3 -3 -4 -4 -5
7 8 8 8 8 8 7 7 7 7 7 6 5 4 4 3 3 2 1 -0 -1 -3 -4 -6 -7 -7 -7 -7 -6 -6 -5 -5 -5 -5 -5 -5 -4 -4 -4 -3 -3 -4 -4 -5 -5 -5 -4 -4 -4
7 7 7 7 7 7 7 6 6 7 7 6 6 5 5 5 4 3 2 1 -1 -2 -3 -5 -6 -7 -7 -7 -7 -6 -6 -6 -6 -6 -6 -6 -6 -5 -5 -5 -5 -6 -6 -6 -6 -6 -5 -4 -3
6 6 6 6 6 5 5 5 5 6 7 7 7 6 6 5 5 4 3 2 1 -1 -2 -4 -5 -6 -6 -7 -6 -6 -6 -6 -6 -7 -7 -7 -7 -7 -7 -7 -7 -7 -7 -7 -7 -7 -6 -5 -4
6 6 6 5 5 4 4 4 5 6 6 7 7 7 7 6 5 5 4 3 2 1 -0 -2 -4 -5 -5 -6 -6 -6 -6 -6 -6 -7 -7 -7 -7 -6 -6 -7 -7 -8 -8 -8 -8 -8 -7 -6 -6
5 5 4 4 3 4 4 4 4 5 6 7 7 7 7 7 6 6 5 4 4 3 1 -1 -3 -4 -5 -5 -6 -6 -6 -6 -6 -7 -6 -6 -5 -5 -5 -6 -6 -7 -7 -7 -7 -7 -7 -6 -6
4 4 3 2 2 3 4 4 4 5 6 6 7 7 7 6 6 6 5 5 4 3 2 -0 -3 -4 -4 -5 -5 -6 -6 -6 -6 -5 -5 -4 -3 -3 -3 -3 -4 -4 -5 -5 -6 -6 -6 -6 -5
5 3 2 1 1 3 4 4 4 5 6 6 5 5 5 5 5 5 5 5 4 4 2 -0 -2 -3 -4 -4 -4 -5 -5 -4 -4 -4 -3 -2 -2 -1 -1 -1 -1 -1 -2 -2 -3 -3 -4 -4 -4
4 3 2 1 1 2 4 4 5 5 5 4 4 4 4 4 4 4 4 3 3 3 1 -0 -1 -2 -2 -3 -3 -3 -3 -2 -2 -2 -1 -1 -0 1 1 1 1 1 1 1 0 -0 -0 -1 -1
4 3 2 1 1 1 3 4 4 4 4 3 3 3 3 3 3 2 2 2 1 1 0 -0 -0 -0 -0 -0 -0 -0 -0 0 1 1 2 2 2 3 4 4 4 4 4 4 3 3 3 2 2
3 3 3 2 1 1 2 3 3 3 2 2 1 1 2 2 2 2 1 1 1 0 1 1 1 1 2 2 3 3 3 4 4 5 5 5 5 6 7 7 7 7 7 6 6 6 6 5 5
3 3 3 2 2 1 2 2 2 2 1 1 1 1 1 2 2 2 1 1 0 0 1 2 2 3 4 5 5 5 5 6 6 6 7 7 7 8 8 8 8 8 8 8 8 7 7 7 7